UAL25 KSFO-KRNO

Flight info

Callsign UAL25
Flight time 1h 5m
Altitude 25000
Route TRUKN2 ORRCA TARVR2
Aircraft A320/M-SDE3FGHIRWY/LB1

Departure

Time 2026-05-04 06:11
Airport San Francisco International Airport (KSFO)

Arrival

Time 2026-05-04 07:16
Airport Reno Tahoe International Airport (KRNO)
Time Latitude Longitude Altitude Speed Heading
2026-05-04 05:42 37.61796 -122.38847 15 ft 0 kts 140°
2026-05-04 05:56 37.61805 -122.38857 14 ft 3 kts 140°
2026-05-04 05:56 37.61818 -122.38870 16 ft 2 kts 140°
2026-05-04 05:57 37.61829 -122.38882 17 ft 2 kts 140°
2026-05-04 05:57 37.61841 -122.38894 20 ft 2 kts 140°
2026-05-04 05:57 37.61851 -122.38906 20 ft 2 kts 142°
2026-05-04 05:57 37.61866 -122.38916 22 ft 3 kts 175°
2026-05-04 05:58 37.61876 -122.38917 22 ft 0 kts 195°
2026-05-04 06:00 37.61864 -122.38926 0 ft 5 kts 227°
2026-05-04 06:01 37.61874 -122.38969 21 ft 6 kts 288°
2026-05-04 06:01 37.61890 -122.39031 22 ft 9 kts 288°
2026-05-04 06:03 37.62271 -122.38797 22 ft 17 kts 61°
2026-05-04 06:03 37.62250 -122.38706 20 ft 8 kts 118°
2026-05-04 06:05 37.61765 -122.37667 20 ft 14 kts 111°
2026-05-04 06:05 37.61675 -122.37403 20 ft 18 kts 121°
2026-05-04 06:05 37.61612 -122.37258 21 ft 20 kts 118°
2026-05-04 06:06 37.61544 -122.37090 20 ft 23 kts 117°
2026-05-04 06:06 37.61461 -122.36911 20 ft 25 kts 130°
2026-05-04 06:06 37.61348 -122.36742 20 ft 27 kts 120°
2026-05-04 06:06 37.61259 -122.36527 20 ft 29 kts 117°
2026-05-04 06:07 37.61161 -122.36292 23 ft 31 kts 117°
2026-05-04 06:07 37.61060 -122.36049 22 ft 26 kts 117°
2026-05-04 06:07 37.61055 -122.35976 20 ft 0 kts 84°
2026-05-04 06:08 37.61059 -122.35958 20 ft 8 kts 69°
2026-05-04 06:09 37.61133 -122.35887 20 ft 17 kts 15°
2026-05-04 06:09 37.61218 -122.35948 20 ft 11 kts 304°
2026-05-04 06:11 37.63155 -122.40569 1037 ft 179 kts 304°
2026-05-04 06:11 37.64123 -122.41591 1726 ft 184 kts 338°
2026-05-04 06:13 37.68874 -122.29333 6351 ft 273 kts 69°
2026-05-04 06:14 37.75939 -122.17670 10603 ft 321 kts 37°
2026-05-04 06:14 37.77814 -122.15980 10939 ft 337 kts 37°
2026-05-04 06:15 37.79719 -122.14266 11560 ft 342 kts 37°
2026-05-04 06:15 37.81668 -122.12508 12240 ft 346 kts 37°
2026-05-04 06:15 37.83637 -122.10726 12921 ft 350 kts 37°
2026-05-04 06:15 37.85623 -122.08922 13602 ft 353 kts 37°
2026-05-04 06:16 37.87629 -122.07103 14240 ft 357 kts 37°
2026-05-04 06:16 37.89659 -122.05262 14863 ft 360 kts 38°
2026-05-04 06:16 37.91700 -122.03409 15477 ft 362 kts 38°
2026-05-04 06:16 37.93754 -122.01547 16080 ft 365 kts 38°
2026-05-04 06:17 37.95826 -121.99664 16686 ft 368 kts 38°
2026-05-04 06:17 37.97917 -121.97764 17292 ft 370 kts 38°
2026-05-04 06:17 38.00020 -121.95850 17917 ft 373 kts 38°
2026-05-04 06:17 38.02129 -121.93927 18512 ft 376 kts 38°
2026-05-04 06:18 38.04269 -121.91977 19073 ft 379 kts 38°
2026-05-04 06:18 38.06418 -121.90018 19650 ft 381 kts 38°
2026-05-04 06:18 38.08585 -121.88046 20221 ft 384 kts 39°
2026-05-04 06:20 38.24082 -121.73852 23886 ft 400 kts 40°
2026-05-04 06:20 38.26319 -121.71797 24306 ft 402 kts 40°
2026-05-04 06:21 38.35423 -121.63425 25012 ft 403 kts 40°
2026-05-04 06:21 38.37694 -121.61330 25011 ft 403 kts 40°
2026-05-04 06:22 38.39962 -121.59243 25015 ft 402 kts 40°
2026-05-04 06:22 38.42094 -121.56958 25017 ft 397 kts 50°
2026-05-04 06:25 38.53063 -121.14828 24998 ft 387 kts 77°
2026-05-04 06:25 38.53760 -121.11546 24994 ft 387 kts 77°
2026-05-04 06:26 38.54462 -121.08232 24991 ft 388 kts 77°
2026-05-04 06:26 38.55168 -121.04900 24987 ft 388 kts 77°
2026-05-04 06:26 38.55873 -121.01572 24983 ft 388 kts 76°
2026-05-04 06:26 38.56579 -120.98249 24993 ft 388 kts 76°
2026-05-04 06:27 38.59319 -120.85335 24132 ft 371 kts 76°
2026-05-04 06:28 38.59988 -120.82160 23905 ft 369 kts 76°
2026-05-04 06:28 38.60653 -120.78994 23696 ft 368 kts 76°
2026-05-04 06:28 38.61317 -120.75825 23686 ft 368 kts 76°
2026-05-04 06:28 38.61978 -120.72661 23688 ft 368 kts 77°
2026-05-04 06:29 38.62638 -120.69494 23611 ft 369 kts 76°
2026-05-04 06:29 38.63298 -120.66331 23488 ft 368 kts 76°
2026-05-04 06:29 38.63959 -120.63166 23494 ft 368 kts 76°
2026-05-04 06:29 38.64621 -120.60002 23497 ft 368 kts 76°
2026-05-04 06:30 38.65275 -120.56876 23483 ft 369 kts 77°
2026-05-04 06:30 38.65939 -120.53695 23484 ft 369 kts 76°
2026-05-04 06:30 38.66600 -120.50519 23464 ft 370 kts 76°
2026-05-04 06:30 38.67260 -120.47336 23459 ft 370 kts 76°
2026-05-04 06:31 38.67916 -120.44154 23197 ft 368 kts 76°
2026-05-04 06:31 38.68565 -120.41006 22765 ft 364 kts 76°
2026-05-04 06:31 38.69205 -120.37892 22336 ft 360 kts 76°
2026-05-04 06:31 38.69839 -120.34805 21900 ft 357 kts 77°
2026-05-04 06:32 38.70467 -120.31746 21471 ft 354 kts 77°
2026-05-04 06:33 38.74701 -120.11015 18465 ft 338 kts 77°
2026-05-04 06:34 38.75294 -120.08095 17937 ft 339 kts 77°
2026-05-04 06:34 38.75886 -120.05182 17480 ft 337 kts 77°
2026-05-04 06:34 38.76473 -120.02282 17003 ft 335 kts 77°
2026-05-04 06:34 38.77057 -119.99393 16528 ft 334 kts 77°
2026-05-04 06:35 38.77641 -119.96516 16045 ft 333 kts 77°
2026-05-04 06:36 38.83142 -119.78052 13916 ft 306 kts 31°
2026-05-04 06:37 38.85158 -119.77147 13752 ft 311 kts
2026-05-04 06:37 38.87322 -119.77049 13563 ft 313 kts
2026-05-04 06:37 38.89502 -119.77049 13379 ft 312 kts
2026-05-04 06:37 38.91670 -119.77056 13193 ft 311 kts
2026-05-04 06:38 38.93831 -119.77064 12954 ft 311 kts
2026-05-04 06:38 38.95984 -119.77066 12640 ft 308 kts
2026-05-04 06:40 39.10587 -119.77030 11024 ft 279 kts
2026-05-04 06:40 39.11216 -119.77029 11029 ft 276 kts
2026-05-04 06:40 39.12360 -119.77027 11021 ft 274 kts
2026-05-04 06:40 39.14278 -119.77022 10886 ft 278 kts
2026-05-04 06:41 39.16219 -119.77016 10533 ft 279 kts
2026-05-04 06:41 39.18165 -119.77010 10222 ft 279 kts
2026-05-04 06:41 39.20101 -119.77006 9938 ft 277 kts
2026-05-04 06:41 39.22030 -119.77003 9634 ft 276 kts
2026-05-04 06:42 39.23304 -119.77002 9288 ft 280 kts
2026-05-04 06:42 39.25274 -119.76999 8863 ft 284 kts
2026-05-04 06:42 39.27246 -119.76995 8556 ft 282 kts
2026-05-04 06:44 39.40515 -119.76664 6948 ft 255 kts
2026-05-04 06:44 39.42235 -119.76604 7015 ft 239 kts
2026-05-04 06:44 39.43882 -119.76549 7086 ft 236 kts
2026-05-04 06:45 39.45503 -119.76497 7160 ft 236 kts
2026-05-04 06:45 39.47142 -119.76446 7231 ft 236 kts
2026-05-04 06:45 39.48786 -119.76400 7301 ft 236 kts
2026-05-04 06:45 39.50430 -119.76359 7376 ft 236 kts
2026-05-04 06:46 39.52075 -119.76322 7582 ft 239 kts
2026-05-04 06:46 39.53738 -119.76300 8382 ft 239 kts
2026-05-04 06:46 39.55409 -119.76311 9155 ft 242 kts
2026-05-04 06:46 39.57104 -119.76345 9908 ft 245 kts
2026-05-04 06:48 39.69266 -119.77077 11028 ft 251 kts 358°
2026-05-04 06:48 39.70980 -119.77532 11028 ft 254 kts 338°
2026-05-04 06:49 39.72360 -119.78938 11029 ft 258 kts 303°
2026-05-04 06:50 39.80377 -119.83474 11010 ft 233 kts 70°
2026-05-04 06:51 39.80674 -119.81429 11009 ft 232 kts 94°
2026-05-04 06:51 39.80260 -119.79421 11007 ft 232 kts 118°
2026-05-04 06:51 39.79227 -119.77847 11007 ft 235 kts 143°
2026-05-04 06:51 39.77731 -119.76985 11010 ft 240 kts 168°
2026-05-04 06:52 39.76047 -119.76842 11017 ft 244 kts 176°
2026-05-04 06:52 39.74368 -119.77174 11018 ft 248 kts 200°
2026-05-04 06:52 39.72938 -119.78438 11028 ft 253 kts 224°
2026-05-04 06:52 39.71734 -119.80116 11029 ft 254 kts 225°
2026-05-04 06:53 39.70539 -119.81811 11027 ft 254 kts 225°
2026-05-04 06:53 39.69264 -119.83377 11025 ft 251 kts 209°
2026-05-04 06:53 39.67672 -119.84203 11027 ft 246 kts 188°
2026-05-04 06:53 39.65999 -119.84667 11029 ft 246 kts 188°
2026-05-04 06:54 39.64323 -119.85128 11029 ft 246 kts 189°
2026-05-04 06:54 39.62648 -119.85589 11029 ft 246 kts 189°
2026-05-04 06:54 39.60972 -119.86049 11026 ft 246 kts 189°
2026-05-04 06:54 39.59295 -119.86510 11027 ft 246 kts 189°
2026-05-04 06:55 39.57626 -119.86965 11028 ft 246 kts 189°
2026-05-04 06:55 39.55948 -119.87424 11005 ft 246 kts 189°
2026-05-04 06:55 39.54273 -119.87886 11006 ft 246 kts 189°
2026-05-04 06:55 39.52611 -119.88432 11000 ft 248 kts 202°
2026-05-04 06:56 39.51221 -119.89715 11008 ft 252 kts 221°
2026-05-04 06:57 39.43920 -120.02634 11043 ft 256 kts 236°
2026-05-04 06:58 39.42912 -120.04522 11052 ft 254 kts 222°
2026-05-04 06:58 39.41487 -120.05786 11056 ft 247 kts 197°
2026-05-04 06:58 39.39820 -120.06146 11068 ft 241 kts 172°
2026-05-04 06:58 39.38151 -120.05941 11065 ft 243 kts 178°
2026-05-04 06:59 39.36458 -120.06124 11074 ft 244 kts 184°
2026-05-04 06:59 39.34789 -120.06411 11066 ft 245 kts 185°
2026-05-04 06:59 39.33082 -120.06712 11067 ft 245 kts 185°
2026-05-04 06:59 39.31388 -120.07006 11067 ft 245 kts 185°
2026-05-04 07:01 39.19651 -120.07061 11052 ft 242 kts 169°
2026-05-04 07:01 39.17986 -120.06702 11050 ft 242 kts 169°
2026-05-04 07:02 39.16326 -120.06338 11030 ft 242 kts 169°
2026-05-04 07:02 39.14671 -120.05969 11034 ft 242 kts 168°
2026-05-04 07:02 39.13012 -120.05595 11028 ft 242 kts 169°
2026-05-04 07:02 39.11354 -120.05221 11021 ft 242 kts 168°
2026-05-04 07:03 39.09739 -120.04672 11019 ft 240 kts 155°
2026-05-04 07:03 39.08353 -120.03500 11031 ft 239 kts 132°
2026-05-04 07:03 39.07305 -120.01841 11029 ft 239 kts 127°
2026-05-04 07:03 39.06289 -120.00144 11036 ft 239 kts 127°
2026-05-04 07:04 39.05277 -119.98442 11036 ft 239 kts 127°
2026-05-04 07:04 39.04267 -119.96743 11042 ft 239 kts 127°
2026-05-04 07:04 39.03270 -119.95066 11045 ft 239 kts 127°
2026-05-04 07:04 39.02258 -119.93365 11047 ft 239 kts 127°
2026-05-04 07:05 39.01246 -119.91663 11015 ft 239 kts 127°
2026-05-04 07:05 39.00234 -119.89960 11018 ft 239 kts 127°
2026-05-04 07:05 38.99223 -119.88259 11020 ft 240 kts 127°
2026-05-04 07:05 38.98211 -119.86556 11024 ft 239 kts 127°
2026-05-04 07:06 38.96312 -119.83057 10930 ft 241 kts 109°
2026-05-04 07:06 38.96114 -119.80970 10775 ft 237 kts 82°
2026-05-04 07:06 38.96683 -119.79003 10633 ft 235 kts 55°
2026-05-04 07:07 38.97863 -119.77613 10490 ft 230 kts 28°
2026-05-04 07:08 39.08868 -119.77041 9655 ft 226 kts
2026-05-04 07:09 39.10444 -119.77036 9539 ft 225 kts
2026-05-04 07:09 39.12011 -119.77034 9540 ft 226 kts
2026-05-04 07:09 39.13540 -119.77033 9566 ft 211 kts
2026-05-04 07:09 39.15014 -119.77029 9574 ft 218 kts
2026-05-04 07:10 39.16538 -119.77023 9561 ft 224 kts
2026-05-04 07:10 39.18102 -119.77018 9555 ft 225 kts
2026-05-04 07:12 39.28527 -119.76982 8589 ft 200 kts
2026-05-04 07:12 39.29912 -119.76977 8405 ft 199 kts
2026-05-04 07:12 39.31302 -119.76972 8207 ft 197 kts
2026-05-04 07:12 39.32664 -119.76966 7990 ft 196 kts
2026-05-04 07:13 39.34031 -119.76962 7672 ft 197 kts 360°
2026-05-04 07:13 39.35402 -119.76959 7353 ft 197 kts 359°
2026-05-04 07:13 39.36772 -119.76957 7063 ft 198 kts 359°
2026-05-04 07:14 39.41858 -119.76940 5949 ft 157 kts 358°
2026-05-04 07:14 39.42930 -119.76940 5714 ft 152 kts 358°
2026-05-04 07:15 39.43983 -119.76940 5477 ft 151 kts 358°
2026-05-04 07:15 39.45029 -119.76941 5259 ft 149 kts 357°
2026-05-04 07:15 39.46069 -119.76951 5018 ft 149 kts 358°
2026-05-04 07:15 39.47098 -119.76958 4821 ft 149 kts 359°
2026-05-04 07:16 39.48134 -119.76935 4633 ft 149 kts 359°
2026-05-04 07:16 39.49156 -119.76931 4498 ft 139 kts 359°
2026-05-04 07:16 39.49875 -119.76928 4497 ft 62 kts
2026-05-04 07:16 39.50029 -119.76926 4496 ft 2 kts
2026-05-04 07:17 39.50037 -119.76926 4496 ft 0 kts
2026-05-04 07:17 39.50039 -119.76927 4496 ft 2 kts 357°
2026-05-04 07:17 39.50084 -119.76927 4495 ft 11 kts
2026-05-04 07:17 39.50160 -119.76927 4496 ft 11 kts 358°
2026-05-04 07:18 39.50307 -119.76981 4499 ft 27 kts 328°
2026-05-04 07:18 39.50362 -119.77059 4498 ft 0 kts 303°
2026-05-04 07:18 39.50363 -119.77061 4498 ft 0 kts 303°
2026-05-04 07:19 39.50366 -119.77067 4498 ft 0 kts 303°
2026-05-04 07:19 39.50372 -119.77086 4499 ft 11 kts 289°
2026-05-04 07:19 39.50374 -119.77212 4497 ft 13 kts 269°
2026-05-04 07:19 39.50374 -119.77226 4496 ft 0 kts 269°
2026-05-04 07:20 39.50374 -119.77228 4496 ft 1 kts 269°
2026-05-04 07:22 39.50446 -119.77280 4499 ft 0 kts 357°
2026-05-04 07:23 39.50532 -119.77317 4499 ft 0 kts 184°